Robinson, IL

1:15 AM CDT on August 20, 2017 (GMT -0500)
Robinson Municipal

Weather History for KRSV - December, 2012

Change the Weather History Date:

Sunday, December 2, 2012

  Actual Average (KLWV) Record (KLWV)
Temperature  
Mean Temperature 62 °F -  
Max Temperature 66 °F 46 °F 67 °F (2012)
Min Temperature 57 °F 31 °F 19 °F (2005)
Degree Days  
Heating Degree Days 4    
Growing Degree Days 12 (Base 50)    
Moisture  
Dew Point 58 °F    
Average Humidity 86    
Maximum Humidity 100    
Minimum Humidity 65    
Precipitation  
Precipitation 0.04 in - - ()
Sea Level Pressure  
Sea Level Pressure 30.06 in    
Wind  
Wind Speed 13 mph (South)    
Max Wind Speed 20 mph    
Max Gust Speed 26 mph    
Visibility 9 miles    
Events Rain    
Averages and records for this station are not official NWS values.
T = Trace of Precipitation, MM = Missing Value Source: NWS Daily Summary

Daily Weather History Graph

Daily Weather History Graph

Search for Another Location

Airport or City:

Trip Planner

Search our weather history database for the weather conditions in past years. The results will help you decide how hot, cold, wet, or windy it might be!

Date:

Astronomy

Dec. 02, 2012 Rise Set
Actual Time 6:51 AM CST 4:28 PM CST
Civil Twilight 6:22 AM CST 4:57 PM CST
Nautical Twilight 5:49 AM CST 5:31 PM CST
Astronomical Twilight 5:17 AM CST 6:03 PM CST
Moon 8:14 PM CST (12/2) 9:42 AM CST (12/2)
Length of Visible Light 10h 35m
Length of Day
9h 36m
Waning Gibbous, 85% of the Moon is Illuminated
Dec 2
Waning Gibbous
Dec 6
Last Quarter
Dec 13
New
Dec 19
First Quarter
Dec 28
Full

Hourly Weather History & Observations

Time (CST) Temp. Dew Point Humidity Pressure Visibility Wind Dir Wind Speed Gust Speed Precip Events Conditions
12:15 AM 60.8 °F 49.1 °F 65% 30.04 in 10.0 mi South 17.3 mph - N/A   Mostly Cloudy
12:35 AM 61.2 °F 49.6 °F 66% 30.04 in 10.0 mi South 17.3 mph 21.9 mph N/A   Mostly Cloudy
12:55 AM 61.2 °F 50.0 °F 67% 30.03 in 10.0 mi South 18.4 mph 23.0 mph N/A   Overcast
1:15 AM 61.0 °F 50.2 °F 68% 30.03 in 10.0 mi South 17.3 mph 21.9 mph N/A   Mostly Cloudy
1:35 AM 61.0 °F 50.5 °F 68% 30.02 in 10.0 mi South 19.6 mph 25.3 mph N/A   Scattered Clouds
1:55 AM 61.0 °F 50.9 °F 69% 30.02 in 10.0 mi South 18.4 mph - N/A   Mostly Cloudy
2:15 AM 60.8 °F 51.4 °F 71% 30.02 in 10.0 mi South 16.1 mph 19.6 mph N/A Rain Light Rain
2:35 AM 61.3 °F 51.4 °F 70% 30.02 in 10.0 mi South 16.1 mph - N/A   Overcast
2:55 AM 61.0 °F 52.3 °F 73% 30.02 in 10.0 mi South 17.3 mph 24.2 mph N/A Rain Rain
3:15 AM 59.2 °F 53.6 °F 82% 30.01 in 10.0 mi South 15.0 mph - N/A Rain Light Rain
3:35 AM 58.1 °F 54.5 °F 88% 30.01 in 10.0 mi South 12.7 mph - N/A Rain Light Rain
3:55 AM 59.0 °F 53.8 °F 83% 30.01 in 10.0 mi South 12.7 mph - N/A   Overcast
4:15 AM 59.0 °F 53.8 °F 83% 30.01 in 10.0 mi South 11.5 mph - 0.01 in Rain Rain
4:55 AM 58.3 °F 54.5 °F 87% 30.02 in 10.0 mi SSW 9.2 mph - 0.03 in Rain Light Rain
5:15 AM 58.1 °F 55.9 °F 93% 30.02 in 10.0 mi South 10.4 mph - 0.01 in   Overcast
5:35 AM 58.1 °F 55.4 °F 91% 30.02 in 10.0 mi South 8.1 mph - 0.01 in Rain Light Rain
5:55 AM 58.3 °F 55.0 °F 89% 30.02 in 10.0 mi South 11.5 mph - 0.01 in   Overcast
6:15 AM 58.1 °F 55.2 °F 90% 30.03 in 10.0 mi South 9.2 mph - N/A   Overcast
6:35 AM 57.7 °F 55.8 °F 93% 30.04 in 10.0 mi South 6.9 mph - N/A   Overcast
6:55 AM 57.7 °F 55.8 °F 93% 30.05 in 10.0 mi South 6.9 mph - N/A   Overcast
7:15 AM 58.1 °F 55.9 °F 93% 30.05 in 10.0 mi South 6.9 mph - N/A   Overcast
7:35 AM 59.7 °F 55.8 °F 87% 30.05 in 10.0 mi South 10.4 mph - N/A   Overcast
7:55 AM 61.0 °F 56.1 °F 84% 30.05 in 10.0 mi South 9.2 mph - N/A   Overcast
8:15 AM 61.0 °F 56.3 °F 85% 30.06 in 10.0 mi South 10.4 mph - N/A   Mostly Cloudy
8:35 AM 62.4 °F 57.0 °F 82% 30.06 in 10.0 mi South 11.5 mph - N/A   Overcast
8:55 AM 63.9 °F 57.6 °F 80% 30.06 in 10.0 mi South 12.7 mph - N/A   Mostly Cloudy
9:15 AM 64.6 °F 57.9 °F 79% 30.06 in 10.0 mi South 15.0 mph - N/A   Scattered Clouds
9:35 AM 65.1 °F 58.5 °F 79% 30.06 in 10.0 mi SSW 17.3 mph - N/A   Scattered Clouds
9:55 AM 66.2 °F 58.6 °F 77% 30.07 in 10.0 mi SSW 19.6 mph - N/A   Scattered Clouds
10:15 AM 65.7 °F 58.8 °F 79% 30.07 in 10.0 mi SSW 13.8 mph 26.5 mph N/A   Mostly Cloudy
10:35 AM 65.8 °F 58.8 °F 78% 30.07 in 10.0 mi SSW 18.4 mph - N/A   Mostly Cloudy
10:55 AM 66.2 °F 59.2 °F 78% 30.06 in 10.0 mi SSW 17.3 mph - N/A   Mostly Cloudy
11:15 AM 66.6 °F 59.5 °F 78% 30.06 in 10.0 mi SSW 13.8 mph 23.0 mph N/A   Overcast
11:55 AM 66.2 °F 59.7 °F 80% 30.05 in 10.0 mi SSW 10.4 mph 19.6 mph N/A   Overcast
12:15 PM 66.2 °F 59.7 °F 80% 30.05 in 10.0 mi SSW 12.7 mph 17.3 mph N/A   Overcast
12:35 PM 66.2 °F 59.9 °F 80% 30.04 in 10.0 mi South 13.8 mph - N/A   Overcast
12:55 PM 65.7 °F 59.9 °F 82% 30.04 in 10.0 mi SSW 15.0 mph - N/A   Overcast
1:15 PM 65.8 °F 60.1 °F 82% 30.03 in 10.0 mi SSW 11.5 mph 17.3 mph N/A   Overcast
1:35 PM 66.2 °F 59.9 °F 80% 30.04 in 10.0 mi SSW 13.8 mph - N/A   Overcast
1:55 PM 66.0 °F 60.3 °F 82% 30.04 in 10.0 mi SSW 8.1 mph - N/A   Overcast
2:15 PM 65.5 °F 60.3 °F 83% 30.04 in 10.0 mi SSW 10.4 mph - N/A   Overcast
2:35 PM 65.8 °F 60.4 °F 83% 30.05 in 10.0 mi SSW 9.2 mph - N/A   Overcast
2:55 PM 65.5 °F 60.1 °F 83% 30.05 in 10.0 mi SSW 9.2 mph - N/A   Overcast
3:15 PM 65.5 °F 60.3 °F 83% 30.06 in 10.0 mi South 8.1 mph - N/A   Overcast
3:35 PM 65.3 °F 60.1 °F 83% 30.06 in 10.0 mi South 9.2 mph - N/A   Overcast
3:55 PM 63.9 °F 59.7 °F 86% 30.06 in 7.0 mi South 5.8 mph - N/A   Mostly Cloudy
4:15 PM 62.4 °F 59.5 °F 90% 30.06 in 7.0 mi South 5.8 mph - N/A   Scattered Clouds
4:35 PM 62.8 °F 60.8 °F 93% 30.06 in 10.0 mi South 6.9 mph - N/A   Overcast
4:55 PM 62.4 °F 60.6 °F 94% 30.06 in 10.0 mi South 5.8 mph - N/A   Overcast
5:15 PM 61.9 °F 60.8 °F 96% 30.07 in 7.0 mi SSE 6.9 mph - N/A   Overcast
5:35 PM 63.0 °F 61.7 °F 96% 30.07 in 7.0 mi South 8.1 mph - N/A   Overcast
6:15 PM 62.6 °F 61.7 °F 97% 30.08 in 7.0 mi South 5.8 mph - N/A   Overcast
6:35 PM 62.1 °F 61.7 °F 99% 30.08 in 7.0 mi South 6.9 mph - N/A   Overcast
7:15 PM 62.6 °F 62.6 °F 100% 30.09 in 7.0 mi South 8.1 mph - N/A   Overcast
7:35 PM 62.8 °F 62.6 °F 99% 30.09 in 7.0 mi South 8.1 mph - N/A   Overcast
7:55 PM 62.4 °F 62.2 °F 99% 30.10 in 7.0 mi South 4.6 mph - N/A   Overcast
8:15 PM 62.2 °F 62.2 °F 100% 30.10 in 7.0 mi SSE 4.6 mph - N/A   Overcast
8:35 PM 61.2 °F 61.2 °F 100% 30.09 in 5.0 mi SSE 6.9 mph - N/A   Overcast
8:55 PM 61.3 °F 61.3 °F 100% 30.10 in 5.0 mi SSE 6.9 mph - N/A   Overcast
9:15 PM 62.1 °F 62.1 °F 100% 30.10 in 5.0 mi South 4.6 mph - N/A   Overcast
9:35 PM 61.9 °F 61.9 °F 100% 30.10 in 5.0 mi South 5.8 mph - N/A   Overcast
9:55 PM 62.1 °F 62.1 °F 100% 30.10 in 4.0 mi SE 4.6 mph - N/A   Overcast
10:15 PM 62.1 °F 62.1 °F 100% 30.10 in 3.0 mi SSE 6.9 mph - N/A   Overcast
10:55 PM 62.1 °F 62.1 °F 100% 30.10 in 4.0 mi SSE 4.6 mph - N/A   Overcast
11:15 PM 62.4 °F 62.4 °F 100% 30.10 in 7.0 mi SSE 6.9 mph - N/A   Overcast
11:35 PM 62.6 °F 62.6 °F 100% 30.10 in 7.0 mi SSE 5.8 mph - N/A   Overcast
11:55 PM 62.6 °F 62.6 °F 100% 30.10 in 7.0 mi SSE 6.9 mph - N/A   Overcast